Location: �terpigny
(49.8910°N, 2.9249°E)
Time: 14:52:11
(UTC+00:00)

Cosmos 2278 Rocket - Pass Details

Date: 24 October 2021
Orbit: 841 x 845 km, 71.0° (Epoch: 28 November)

Event Time Altitude Azimuth Distance (km) Brightness Sun altitude
Rises 19:27:34 0° 332° (NNW) 3,417 5.9 -27.6°
Reaches altitude 10° 19:30:06 10° 337° (NNW) 2,478 5.1 -28.0°
Enters shadow 19:34:19 43° 11° (NNE) 1,168 2.9 -28.6°
